Location: Kawakawa
(35.3830°S, 174.0670°E)
Time: 01:33:14
(UTC+13:00)

ISS - Pass Details

Date: 02 February 2019
Orbit: 403 x 411 km, 51.6° (Epoch: 20 February)

Event Time Altitude Azimuth Distance (km) Brightness Sun altitude
Exits shadow 04:31:00 32° 185° (S) 735 -2.3 -23.3°
Drops below altitude 10° 04:33:25 10° 147° (SSE) 1,497 0.1 -23.0°
Sets 04:35:37 0° 138° (SE) 2,363 1.5 -22.7°
